Weather History for Rexburg, ID

Change the Weather History Date:

Wednesday, March 6, 2013

  Actual Average Record
Temperature  
Mean Temperature 31 °F 30 °F  
Max Temperature 43 °F 40 °F 51 °F (2000)
Min Temperature 19 °F 20 °F 0 °F (2008)
Degree Days  
Heating Degree Days 34 35  
Month to date heating degree days 219 219  
Since 1 July heating degree days 5886 6192  
Cooling Degree Days 0 0  
Month to date cooling degree days 0 0  
Year to date cooling degree days 0 0  
Moisture  
Dew Point 26 °F    
Average Humidity 82    
Maximum Humidity 100    
Minimum Humidity 63    
Precipitation  
Precipitation 0.13 in 0.02 in 0.34 in (2002)
Month to date precipitation 0.13 0.17  
Year to date precipitation 1.71 1.74  
Sea Level Pressure  
Sea Level Pressure 29.87 in    
Wind  
Wind Speed 8 mph (South)    
Max Wind Speed 21 mph    
Max Gust Speed 28 mph    
Visibility 8 miles    
Events Snow , Thunderstorm    
T = Trace of Precipitation, MM = Missing Value Source: NWS Daily Summary

Daily Weather History Graph

Daily Weather History Graph

Search for Another Location

Airport:

Trip Planner

Search our weather history database for the weather conditions in past years. The results will help you decide how hot, cold, wet, or windy it might be!

Date:

Astronomy

Mar. 06, 2013 Rise Set
Actual Time 6:54 AM MST 6:22 PM MST
Civil Twilight 6:26 AM MST 6:51 PM MST
Nautical Twilight 5:52 AM MST 7:24 PM MST
Astronomical Twilight 5:19 AM MST 7:58 PM MST
Moon 3:15 AM MST (3/6) 1:00 PM MST (3/6)
Length of Visible Light 12h 25m
Length of Day
11h 27m
Waning Crescent, 29% of the Moon is Illuminated
Mar 6
Waning Crescent
Mar 11
New
Mar 19
First Quarter
Mar 27
Full
Apr 2
Last Quarter

Hourly Weather History & Observations

Time (MST) Temp. Windchill Dew Point Humidity Pressure Visibility Wind Dir Wind Speed Gust Speed Precip Events Conditions
12:53 AM 19.9 °F 11.1 °F 14.0 °F 78% 30.04 in 10.0 mi NE 6.9 mph - N/A   Clear
1:53 AM 19.9 °F 11.1 °F 12.9 °F 74% 30.02 in 10.0 mi NE 6.9 mph - N/A   Clear
2:53 AM 19.9 °F 11.1 °F 12.0 °F 71% 29.99 in 10.0 mi ENE 6.9 mph - N/A   Scattered Clouds
3:53 AM 21.9 °F 12.5 °F 14.0 °F 72% 29.95 in 10.0 mi NE 8.1 mph - N/A   Overcast
4:53 AM 21.9 °F - 14.0 °F 72% 29.94 in 10.0 mi Calm Calm - N/A   Overcast
5:53 AM 23.0 °F 17.0 °F 15.1 °F 72% 29.92 in 10.0 mi NNE 4.6 mph - N/A   Mostly Cloudy
6:53 AM 23.0 °F 17.0 °F 16.0 °F 74% 29.91 in 9.0 mi NE 4.6 mph - N/A   Overcast
7:53 AM 26.1 °F 20.5 °F 19.0 °F 75% 29.90 in 10.0 mi NE 4.6 mph - N/A   Overcast
8:53 AM 28.0 °F - 19.9 °F 72% 29.90 in 10.0 mi Calm Calm - N/A   Overcast
9:53 AM 32.0 °F 28.7 °F 21.0 °F 64% 29.88 in 10.0 mi SSE 3.5 mph - N/A   Overcast
10:25 AM 33.8 °F 25.8 °F 24.8 °F 70% 29.82 in 1.8 mi WSW 10.4 mph - 0.00 in Snow Light Snow
10:36 AM 32.0 °F 25.6 °F 28.4 °F 87% 29.81 in 3.0 mi WSW 6.9 mph - 0.00 in Snow Light Snow
10:53 AM 34.0 °F 28.8 °F 32.0 °F 92% 29.89 in 7.0 mi WSW 5.8 mph - 0.00 in Snow Light Snow
11:11 AM 33.8 °F 29.6 °F 30.2 °F 87% 29.81 in 9.0 mi West 4.6 mph - 0.00 in Snow Light Snow
11:53 AM 34.0 °F 28.0 °F 33.1 °F 96% 29.89 in 10.0 mi SSW 6.9 mph - 0.00 in   Overcast
12:08 PM 33.8 °F 28.6 °F 32.0 °F 93% 29.81 in 5.0 mi SSW 5.8 mph - 0.01 in Snow Light Snow
12:44 PM 35.6 °F 28.6 °F 33.8 °F 93% 29.79 in 10.0 mi SSW 9.2 mph - 0.01 in   Overcast
12:53 PM 37.0 °F 29.8 °F 33.1 °F 86% 29.87 in 10.0 mi SSW 10.4 mph - 0.01 in   Overcast
1:53 PM 41.0 °F 33.5 °F 33.1 °F 73% 29.81 in 10.0 mi South 13.8 mph 20.7 mph 0.01 in   Overcast
3:53 PM - - - N/A% 29.71 in - North - - N/A   Unknown
4:15 PM - - - N/A% 29.77 in - North - - N/A Thunderstorm Unknown
4:26 PM - - - N/A% 29.79 in - North - - N/A   Unknown
4:40 PM 33.8 °F 25.3 °F 32.0 °F 93% 29.79 in 0.8 mi West 11.5 mph 20.7 mph N/A Snow Light Snow
4:48 PM 33.8 °F - 33.8 °F 100% 29.77 in 1.8 mi Calm Calm - N/A Snow Light Snow
4:50 PM 33.8 °F - 33.8 °F 100% 29.77 in 3.0 mi Calm Calm - N/A Snow Light Snow
4:53 PM 33.1 °F - 33.1 °F 100% 29.86 in 6.0 mi Calm Calm - N/A Snow Light Snow
5:02 PM 33.8 °F 30.8 °F 32.0 °F 93% 29.78 in 10.0 mi South 3.5 mph - 0.02 in   Overcast
5:53 PM 34.0 °F 25.0 °F 32.0 °F 92% 29.85 in 10.0 mi South 12.7 mph - 0.02 in   Overcast
6:53 PM 34.0 °F 24.2 °F 32.0 °F 92% 29.88 in 10.0 mi South 15.0 mph 21.9 mph N/A   Overcast
7:53 PM 35.1 °F 25.2 °F 30.9 °F 85% 29.90 in 10.0 mi SSW 16.1 mph 23.0 mph N/A   Overcast
8:21 PM 33.8 °F 22.5 °F 30.2 °F 87% 29.85 in 10.0 mi South 19.6 mph 25.3 mph N/A   Overcast
8:30 PM 33.8 °F 22.5 °F 30.2 °F 87% 29.85 in 10.0 mi South 19.6 mph 27.6 mph N/A   Overcast
8:53 PM 35.1 °F 25.9 °F 30.0 °F 82% 29.91 in 10.0 mi South 13.8 mph 26.5 mph N/A   Overcast
9:53 PM 34.0 °F 25.5 °F 28.9 °F 82% 29.94 in 10.0 mi South 11.5 mph - N/A   Overcast
10:53 PM 34.0 °F 25.0 °F 27.0 °F 75% 29.94 in 10.0 mi South 12.7 mph - N/A   Mostly Cloudy
11:53 PM 34.0 °F 23.4 °F 25.0 °F 70% 29.94 in 10.0 mi South 17.3 mph 26.5 mph N/A   Clear